Content
SEND FEEDBACK

Daily
Averages
Monthly
Summary
United States of America

HALEYVILLE, ALABAMA


Home > North America > United States > Alabama
Elevation: 919 feet     Latitude: 34 15N     Longitude: 087 35W

WEATHER
 
SELECT A DAY
Number of Records: 142,362;   Date Range: 10/31/07 - 7/12/14
 
SHARE

PRINT THIS DATA

[ ← Previous Day ]
WEATHER ALMANAC - JANUARY 23, 2013
[ Next Day → ]
[ °C ]   °F
Weather ElementAverageHighLow
Temperature42.8 °F54 °F (12:56 pm)31.1 °F (6:56 am)
Dewpoint28.9 °F36.9 °F (10:56 pm)18.1 °F (2:56 am)
Humidity59.2 %81 % (10:28 pm)40 % (9:56 am)
Barometer30.31 in30.41 in (9:56 am)30.23 in (4:43 pm)
Wind Speed4.8 mph11.5 mph (11:56 am)
Weather ElementAverage
Visibility10 mi
Wind DirectionSE (136.5 °)

Weather ElementTotal
Precipitation---
Heating Degree Days22.5 (Base 65)
Averaged from 31 records on January 23, 2013
WEATHER CONDITIONS BREAKOUT
WIND DIRECTION BREAKOUT
WEATHER BY HOUR - JANUARY 23, 2013
[ °C ]   °F
Local TimeTemperatureDewpointHumidityBarometerVisibilityWind DirectionWind SpeedGust SpeedPrecipitationEventsConditions
1:56 AM34.0 °F19.0 °F54 %30.38 in10.0 miCalmOvercast
2:56 AM34.0 °F18.1 °F52 %30.38 in10.0 miCalmOvercast
3:18 AM33.8 °F19.4 °F56 %30.34 in10.0 miCalmOvercast
3:31 AM33.8 °F19.4 °F56 %30.34 in10.0 miCalmOvercast
3:56 AM34.0 °F19.0 °F54 %30.37 in10.0 miCalmOvercast
4:56 AM32.9 °F22.1 °F65 %30.38 in10.0 miCalmOvercast
5:56 AM34.0 °F20.1 °F57 %30.39 in10.0 miCalmMostly Cloudy
6:56 AM31.1 °F21.0 °F66 %30.40 in10.0 miSSE (160°)4.6 mphPartly Cloudy
7:56 AM32.9 °F22.1 °F65 %30.40 in10.0 miCalmClear
8:56 AM38.8 °F21.0 °F49 %30.40 in10.0 miSouth (170°)6.9 mphClear
9:56 AM45.0 °F22.1 °F40 %30.41 in10.0 miSW (220°)8.1 mphClear
10:56 AM48.9 °F25.2 °F40 %30.39 in10.0 miSSW (200°)8.1 mphClear
11:56 AM52.0 °F31.1 °F45 %30.35 in10.0 miSW (230°)11.5 mphClear
12:56 PM54.0 °F32.0 °F43 %30.30 in10.0 miWSW (240°)8.1 mphMostly Cloudy
1:56 PM50.9 °F32.0 °F48 %30.29 in10.0 miSW (230°)10.4 mphOvercast
2:33 PM51.8 °F32.0 °F47 %30.26 in10.0 miSW (230°)6.9 mphOvercast
2:56 PM48.9 °F32.0 °F52 %30.28 in10.0 miSSW (200°)10.4 mphOvercast
3:56 PM48.9 °F32.9 °F54 %30.27 in10.0 miSSW (200°)8.1 mphOvercast
4:43 PM48.2 °F33.8 °F58 %30.23 in10.0 miSW (220°)9.2 mphOvercast
4:56 PM48.9 °F34.0 °F56 %30.26 in10.0 miSSW (200°)9.2 mphOvercast
5:03 PM48.2 °F33.8 °F58 %30.24 in10.0 miSSW (210°)9.2 mphOvercast
5:13 PM48.2 °F33.8 °F58 %30.23 in10.0 miSSW (200°)8.1 mphOvercast
5:56 PM47.8 °F34.9 °F61 %30.27 in10.0 miSSW (210°)6.9 mphOvercast
6:56 PM45.9 °F34.9 °F66 %30.26 in10.0 miSW (220°)6.9 mphScattered Clouds
7:56 PM43.9 °F34.9 °F71 %30.26 in10.0 miSSW (210°)5.8 mphPartly Cloudy
8:56 PM43.0 °F34.9 °F73 %30.26 in10.0 miSSW (210°)4.6 mphScattered Clouds
9:56 PM41.0 °F34.9 °F79 %30.26 in10.0 miCalmScattered Clouds
10:19 PM42.8 °F35.6 °F76 %30.24 in10.0 miCalmMostly Cloudy
10:28 PM41.0 °F35.6 °F81 %30.24 in10.0 miCalmMostly Cloudy
10:56 PM43.0 °F36.9 °F79 %30.27 in10.0 miWSW (250°)3.5 mphOvercast
11:56 PM43.9 °F36.9 °F76 %30.26 in10.0 miSW (220°)3.5 mphMostly Cloudy
Hourly data recorded from K1M4, located miles away from Haleyville, Alabama







STORIES FROM OUR PARTNERS